Weather History for Belmar-Farmingdale, NJ

Change the Weather History Date:

Saturday, December 24, 2011

  Actual Average Record
Temperature  
Mean Temperature 32 °F -  
Max Temperature 37 °F 39 °F 62 °F (1996)
Min Temperature 26 °F 26 °F 15 °F (2000)
Degree Days  
Heating Degree Days 34    
Moisture  
Dew Point 19 °F    
Average Humidity 57    
Maximum Humidity 75    
Minimum Humidity 41    
Precipitation  
Precipitation 0.00 in - - ()
Sea Level Pressure  
Sea Level Pressure 30.36 in    
Wind  
Wind Speed 8 mph (NW)    
Max Wind Speed 18 mph    
Max Gust Speed 26 mph    
Visibility 10 miles    
Events      
Averages and records for this station are not official NWS values.
T = Trace of Precipitation, MM = Missing Value Source: NWS Daily Summary

Daily Weather History Graph

Daily Weather History Graph

Search for Another Location

Airport:

Trip Planner

Search our weather history database for the weather conditions in past years. The results will help you decide how hot, cold, wet, or windy it might be!

Date:

Astronomy

Dec. 24, 2011 Rise Set
Actual Time 7:16 AM EST 4:35 PM EST
Civil Twilight 6:45 AM EST 5:06 PM EST
Nautical Twilight 6:11 AM EST 5:40 PM EST
Astronomical Twilight 5:38 AM EST 6:13 PM EST
Moon 7:02 AM EST 4:45 PM EST
Length of Visible Light 10h 20m
Length of Day
9h 18m
Waning Crescent, 0% of the Moon is Illuminated
Dec 24
Waning Crescent
Dec 24
New
Jan 1
First Quarter
Jan 9
Full
Jan 16
Last Quarter

Hourly Weather History & Observations

Time (EST) Temp. Windchill Dew Point Humidity Pressure Visibility Wind Dir Wind Speed Gust Speed Precip Events Conditions
12:15 AM 37.4 °F 32.1 °F 26.6 °F 65% 30.21 in 10.0 mi NNW 6.9 mph - N/A   Overcast
12:35 AM 37.4 °F 32.1 °F 28.4 °F 70% 30.22 in 10.0 mi NW 6.9 mph - N/A   Overcast
12:55 AM 37.4 °F 29.8 °F 24.8 °F 60% 30.21 in 10.0 mi NW 11.5 mph - N/A   Overcast
1:15 AM 35.6 °F 28.0 °F 24.8 °F 65% 30.21 in 10.0 mi NNW 10.4 mph - N/A   Overcast
1:35 AM 35.6 °F 30.7 °F 24.8 °F 65% 30.21 in 10.0 mi NNW 5.8 mph - N/A   Scattered Clouds
1:55 AM 33.8 °F 28.6 °F 24.8 °F 70% 30.22 in 10.0 mi NNW 5.8 mph - N/A   Clear
2:15 AM 33.8 °F 28.6 °F 24.8 °F 70% 30.23 in 10.0 mi NW 5.8 mph - N/A   Clear
2:35 AM 32.0 °F 26.4 °F 24.8 °F 75% 30.24 in 10.0 mi NNW 5.8 mph - N/A   Clear
2:55 AM 32.0 °F 25.6 °F 23.0 °F 69% 30.25 in 10.0 mi NW 6.9 mph - N/A   Clear
3:15 AM 30.2 °F 23.4 °F 23.0 °F 75% 30.25 in 10.0 mi NNW 6.9 mph - N/A   Clear
3:35 AM 30.2 °F 21.3 °F 23.0 °F 75% 30.26 in 10.0 mi NNW 10.4 mph - N/A   Clear
3:55 AM 30.2 °F 24.3 °F 21.2 °F 69% 30.25 in 10.0 mi NNW 5.8 mph - N/A   Clear
4:15 AM 30.2 °F 22.6 °F 21.2 °F 69% 30.26 in 10.0 mi NNW 8.1 mph - N/A   Clear
4:35 AM 30.2 °F 22.6 °F 21.2 °F 69% 30.26 in 10.0 mi North 8.1 mph - N/A   Scattered Clouds
4:55 AM 30.2 °F 23.4 °F 21.2 °F 69% 30.27 in 10.0 mi NNW 6.9 mph - N/A   Overcast
5:35 AM 30.2 °F 24.3 °F 19.4 °F 64% 30.30 in 10.0 mi NW 5.8 mph - N/A   Overcast
5:55 AM 30.2 °F 22.6 °F 19.4 °F 64% 30.31 in 10.0 mi NW 8.1 mph - N/A   Overcast
6:15 AM 30.2 °F 21.3 °F 19.4 °F 64% 30.31 in 10.0 mi NNW 10.4 mph - N/A   Overcast
6:35 AM 30.2 °F 21.3 °F 19.4 °F 64% 30.31 in 10.0 mi North 10.4 mph - N/A   Overcast
6:55 AM 30.2 °F 21.3 °F 17.6 °F 60% 30.33 in 10.0 mi NW 10.4 mph - N/A   Mostly Cloudy
7:15 AM 30.2 °F 21.3 °F 17.6 °F 60% 30.34 in 10.0 mi NW 10.4 mph - N/A   Overcast
7:35 AM 30.2 °F 22.6 °F 17.6 °F 60% 30.35 in 10.0 mi NW 8.1 mph - N/A   Overcast
7:55 AM 30.2 °F 21.9 °F 17.6 °F 60% 30.36 in 10.0 mi NW 9.2 mph - N/A   Mostly Cloudy
8:15 AM 30.2 °F 22.6 °F 17.6 °F 60% 30.38 in 10.0 mi WNW 8.1 mph - N/A   Partly Cloudy
8:35 AM 32.0 °F 24.8 °F 19.4 °F 60% 30.39 in 10.0 mi NW 8.1 mph - N/A   Clear
8:55 AM 32.0 °F 22.5 °F 17.6 °F 55% 30.40 in 10.0 mi NNW 12.7 mph - N/A   Clear
9:15 AM 32.0 °F 20.8 °F 17.6 °F 55% 30.41 in 10.0 mi NW 17.3 mph 23.0 mph N/A   Clear
9:35 AM 32.0 °F 20.8 °F 15.8 °F 51% 30.42 in 10.0 mi NNW 17.3 mph 25.3 mph N/A   Clear
9:55 AM 33.8 °F 23.5 °F 15.8 °F 48% 30.42 in 10.0 mi NNW 16.1 mph 26.5 mph N/A   Clear
10:15 AM 33.8 °F 24.3 °F 17.6 °F 52% 30.42 in 10.0 mi NNW 13.8 mph - N/A   Clear
10:35 AM 33.8 °F 24.8 °F 17.6 °F 52% 30.43 in 10.0 mi NW 12.7 mph - N/A   Clear
10:55 AM 33.8 °F 24.3 °F 17.6 °F 52% 30.41 in 10.0 mi NW 13.8 mph - N/A   Clear
11:15 AM 35.6 °F 25.2 °F 17.6 °F 48% 30.40 in 10.0 mi NW 18.4 mph 23.0 mph N/A   Clear
11:35 AM 35.6 °F 25.5 °F 15.8 °F 44% 30.40 in 10.0 mi NNW 17.3 mph 24.2 mph N/A   Clear
11:55 AM 35.6 °F 27.5 °F 17.6 °F 48% 30.40 in 10.0 mi NW 11.5 mph - N/A   Clear
12:15 PM 35.6 °F 26.6 °F 15.8 °F 44% 30.40 in 10.0 mi NW 13.8 mph - N/A   Clear
12:55 PM 37.4 °F 29.3 °F 17.6 °F 45% 30.39 in 10.0 mi NW 12.7 mph - N/A   Clear
1:15 PM 37.4 °F 29.3 °F 15.8 °F 41% 30.39 in 10.0 mi NW 12.7 mph - N/A   Clear
1:35 PM 37.4 °F 29.3 °F 17.6 °F 45% 30.39 in 10.0 mi NW 12.7 mph - N/A   Clear
1:55 PM 37.4 °F 29.3 °F 15.8 °F 41% 30.39 in 10.0 mi WNW 12.7 mph 18.4 mph N/A   Clear
2:15 PM 37.4 °F 29.3 °F 17.6 °F 45% 30.40 in 10.0 mi WNW 12.7 mph - N/A   Clear
2:35 PM 37.4 °F 29.8 °F 15.8 °F 41% 30.39 in 10.0 mi NNW 11.5 mph - N/A   Clear
2:55 PM 37.4 °F 29.8 °F 15.8 °F 41% 30.40 in 10.0 mi NW 11.5 mph - N/A   Clear
3:15 PM 37.4 °F 32.1 °F 15.8 °F 41% 30.40 in 10.0 mi WNW 6.9 mph - N/A   Clear
3:35 PM 37.4 °F 30.8 °F 15.8 °F 41% 30.41 in 10.0 mi WNW 9.2 mph - N/A   Clear
4:15 PM 35.6 °F 29.2 °F 15.8 °F 44% 30.41 in 10.0 mi NNW 8.1 mph - N/A   Clear
4:35 PM 35.6 °F 30.7 °F 14.0 °F 41% 30.41 in 10.0 mi NNW 5.8 mph - N/A   Clear
4:55 PM 33.8 °F 29.6 °F 15.8 °F 48% 30.42 in 10.0 mi North 4.6 mph - N/A   Clear
5:15 PM 33.8 °F 30.8 °F 14.0 °F 44% 30.42 in 10.0 mi North 3.5 mph - N/A   Clear
5:35 PM 33.8 °F 29.6 °F 14.0 °F 44% 30.41 in 10.0 mi NNE 4.6 mph - N/A   Clear
5:55 PM 32.0 °F - 14.0 °F 48% 30.42 in 10.0 mi Calm Calm - N/A   Clear
6:15 PM 32.0 °F - 15.8 °F 51% 30.41 in 10.0 mi Calm Calm - N/A   Clear
6:35 PM 30.2 °F - 15.8 °F 55% 30.41 in 10.0 mi Calm Calm - N/A   Clear
6:55 PM 28.4 °F - 17.6 °F 64% 30.43 in 10.0 mi Calm Calm - N/A   Clear
7:15 PM 28.4 °F 23.3 °F 17.6 °F 64% 30.44 in 10.0 mi West 4.6 mph - N/A   Clear
7:35 PM 28.4 °F 22.2 °F 17.6 °F 64% 30.46 in 10.0 mi West 5.8 mph - N/A   Clear
7:55 PM 28.4 °F - 17.6 °F 64% 30.45 in 10.0 mi Calm Calm - N/A   Partly Cloudy
8:15 PM 28.4 °F - 17.6 °F 64% 30.46 in 10.0 mi Calm Calm - N/A   Partly Cloudy
8:35 PM 28.4 °F - 17.6 °F 64% 30.46 in 10.0 mi Calm Calm - N/A   Partly Cloudy
8:55 PM 26.6 °F - 17.6 °F 69% 30.46 in 10.0 mi Calm Calm - N/A   Scattered Clouds
9:15 PM 26.6 °F 20.0 °F 19.4 °F 74% 30.47 in 10.0 mi WNW 5.8 mph - N/A   Mostly Cloudy
9:35 PM 28.4 °F 22.2 °F 17.6 °F 64% 30.47 in 10.0 mi WNW 5.8 mph - N/A   Overcast
9:55 PM 28.4 °F 23.3 °F 17.6 °F 64% 30.46 in 10.0 mi WNW 4.6 mph - N/A   Overcast
10:15 PM 28.4 °F 24.6 °F 19.4 °F 69% 30.46 in 10.0 mi NW 3.5 mph - N/A   Overcast
10:35 PM 28.4 °F - 17.6 °F 64% 30.46 in 10.0 mi Calm Calm - N/A   Mostly Cloudy
10:55 PM 28.4 °F - 17.6 °F 64% 30.44 in 10.0 mi Calm Calm - N/A   Partly Cloudy
11:15 PM 26.6 °F 22.6 °F 17.6 °F 69% 30.44 in 10.0 mi NNE 3.5 mph - N/A   Clear
11:35 PM 28.4 °F 23.3 °F 17.6 °F 64% 30.43 in 10.0 mi NE 4.6 mph - N/A   Clear
11:55 PM 28.4 °F - 15.8 °F 59% 30.43 in 10.0 mi Calm Calm - N/A   Clear